Date String (YYYY-MM-DD hh:mm:ss) UTC,Instrument flags,Ambient pressure (hPa),Sample flow (lpm),Bypass flow (lpm),Sample temperature (°C),Ambient temperature (°C),ASC tube jacket temperature (°C),LED temperature (°C),Box temperature (°C),Sample RH (%),Span deviation,Mass concentration (μg/m³),Mass concentration (μg/m³),Mass concentration (μg/m³)
DateTimeUTC,F1_M11,P_M11,Q1_M11,Q2_M11,T1_M11,T2_M11,T3_M11,T4_M11,T5_M11,U1_M11,ZSPAN_M11,X0_M11,X2_M11,X1_M11
2022-04-08 05:00:00,,0834.6,5.01,0.00,25.1,24.1,00.0,34.2,26.8,06.6,0000.0,0009.97,0002.57,0001.22
2022-04-08 05:01:00,,0834.6,5.00,0.00,25.1,24.1,00.0,34.2,26.8,06.6,0000.0,0009.76,0002.62,0001.22
2022-04-08 05:02:00,,0834.6,5.00,0.00,25.1,24.1,00.0,34.2,26.8,06.6,0000.0,0009.58,0002.60,0001.21
2022-04-08 05:03:00,,0834.6,5.00,0.00,25.1,24.1,00.0,34.1,26.8,06.6,0000.0,0009.26,0002.54,0001.21
2022-04-08 05:04:00,,0834.6,4.99,0.00,25.1,24.1,00.0,34.1,26.8,06.6,0000.0,0008.62,0002.47,0001.19
2022-04-08 05:05:00,,0834.6,5.00,0.00,25.1,24.1,00.0,34.1,26.8,06.7,0000.0,0008.25,0002.48,0001.19
2022-04-08 05:06:00,,0834.6,5.00,0.00,25.0,24.0,00.0,34.1,26.7,06.7,0000.0,0008.59,0002.54,0001.21
2022-04-08 05:07:00,,0834.6,5.00,0.00,25.0,24.0,00.0,34.1,26.7,06.7,0000.0,0008.92,0002.68,0001.22
2022-04-08 05:08:00,,0834.6,5.01,0.00,25.0,24.0,00.0,34.1,26.7,06.7,0000.0,0008.89,0002.73,0001.23
2022-04-08 05:09:00,,0834.6,4.99,0.00,25.0,24.0,00.0,34.0,26.7,06.8,0000.0,0008.92,0002.80,0001.21
2022-04-08 05:10:00,,0834.6,5.00,0.00,25.0,24.0,00.0,34.0,26.7,06.8,0000.0,0009.33,0002.84,0001.19
2022-04-08 05:11:00,,0834.5,5.01,0.00,24.9,24.0,00.0,34.0,26.6,06.7,0000.0,0009.53,0002.86,0001.20
2022-04-08 05:12:00,,0834.6,5.00,0.00,24.9,24.0,00.0,34.0,26.6,06.8,0000.0,0009.57,0002.79,0001.21
2022-04-08 05:13:00,,0834.6,4.99,0.00,24.9,24.0,00.0,34.0,26.6,06.8,0000.0,0009.46,0002.80,0001.22
2022-04-08 05:14:00,,0834.6,5.00,0.00,24.9,24.0,00.0,34.0,26.6,06.8,0000.0,0009.66,0002.83,0001.22
2022-04-08 05:15:00,,0834.6,5.00,0.00,24.9,24.0,00.0,34.0,26.6,06.8,0000.0,0010.81,0002.90,0001.23
2022-04-08 05:16:00,,0834.6,5.00,0.00,24.9,23.9,00.0,34.0,26.6,06.8,0000.0,0010.61,0002.85,0001.24
2022-04-08 05:17:00,,0834.6,5.01,0.00,24.9,23.9,00.0,33.9,26.6,06.8,0000.0,0010.33,0002.78,0001.23
2022-04-08 05:18:00,,0834.6,5.00,0.00,24.8,23.8,00.0,33.9,26.5,06.8,0000.0,0010.25,0002.67,0001.23
2022-04-08 05:19:00,,0834.6,5.00,0.00,24.8,23.8,00.0,33.9,26.5,06.8,0000.0,0010.35,0002.67,0001.24
2022-04-08 05:20:00,,0834.7,5.00,0.00,24.8,23.8,00.0,33.9,26.5,06.8,0000.0,0010.24,0002.68,0001.26
2022-04-08 05:21:00,,0834.7,5.00,0.00,24.8,23.8,00.0,33.9,26.5,06.9,0000.0,0009.69,0002.69,0001.27
2022-04-08 05:22:00,,0834.7,5.00,0.00,24.8,23.8,00.0,33.9,26.5,06.9,0000.0,0009.59,0002.71,0001.26
2022-04-08 05:23:00,,0834.7,5.01,0.00,24.8,23.8,00.0,33.8,26.5,06.9,0000.0,0009.90,0002.72,0001.25
2022-04-08 05:24:00,,0834.7,5.00,0.00,24.7,23.7,00.0,33.8,26.4,06.9,0000.0,0010.26,0002.71,0001.25
2022-04-08 05:25:00,,0834.6,4.99,0.00,24.7,23.5,00.0,33.8,26.3,06.9,0000.0,0009.84,0002.68,0001.24
2022-04-08 05:26:00,,0834.7,5.01,0.00,24.6,23.4,00.0,33.8,26.2,06.9,0000.0,0008.75,0002.60,0001.23
2022-04-08 05:27:00,,0834.7,5.00,0.00,24.6,23.4,00.0,33.7,26.1,07.0,0000.0,0008.34,0002.67,0001.23
2022-04-08 05:28:00,,0834.7,5.01,0.00,24.5,23.3,00.0,33.7,26.2,07.0,0000.0,0008.53,0002.80,0001.24
2022-04-08 05:29:00,,0834.7,4.99,0.00,24.5,23.3,00.0,33.7,26.2,07.0,0000.0,0009.18,0002.82,0001.23
2022-04-08 05:30:00,,0834.7,5.00,0.00,24.5,23.4,00.0,33.7,26.2,07.0,0000.0,0009.60,0002.84,0001.22
2022-04-08 05:31:00,,0834.7,4.99,0.00,24.5,23.4,00.0,33.6,26.1,07.0,0000.0,0009.47,0002.80,0001.20
2022-04-08 05:32:00,,0834.7,5.00,0.00,24.5,23.4,00.0,33.6,26.1,07.0,0000.0,0009.47,0002.75,0001.20
2022-04-08 05:33:00,,0834.7,5.00,0.00,24.4,23.4,00.0,33.6,26.1,07.0,0000.0,0009.34,0002.69,0001.20
2022-04-08 05:34:00,,0834.7,5.00,0.00,24.4,23.4,00.0,33.6,26.1,07.0,0000.0,0008.94,0002.70,0001.21
2022-04-08 05:35:00,,0834.7,5.00,0.00,24.4,23.4,00.0,33.6,26.1,07.0,0000.0,0008.59,0002.71,0001.22
2022-04-08 05:36:00,,0834.7,5.00,0.00,24.4,23.3,00.0,33.5,26.0,07.0,0000.0,0008.80,0002.67,0001.23
2022-04-08 05:37:00,,0834.7,5.00,0.00,24.4,23.3,00.0,33.5,26.0,07.0,0000.0,0008.86,0002.72,0001.25
2022-04-08 05:38:00,,0834.7,5.00,0.00,24.3,23.3,00.0,33.5,26.0,07.0,0000.0,0008.72,0002.71,0001.28
2022-04-08 05:39:00,,0834.7,5.00,0.00,24.3,23.2,00.0,33.5,25.9,07.1,0000.0,0008.63,0002.73,0001.28
2022-04-08 05:40:00,,0834.7,4.99,0.00,24.2,23.1,00.0,33.4,25.8,07.2,0000.0,0008.36,0002.78,0001.30
2022-04-08 05:41:00,,0834.7,5.01,0.00,24.2,23.0,00.0,33.4,25.7,07.2,0000.0,0007.87,0002.80,0001.31
2022-04-08 05:42:00,,0834.7,5.00,0.00,24.1,23.0,00.0,33.4,25.7,07.3,0000.0,0008.14,0002.82,0001.32
2022-04-08 05:43:00,,0834.7,5.00,0.00,24.1,23.0,00.0,33.3,25.6,07.4,0000.0,0008.98,0002.88,0001.33
2022-04-08 05:44:00,,0834.7,5.00,0.00,24.1,23.0,00.0,33.3,25.7,07.5,0000.0,0009.94,0002.96,0001.34
2022-04-08 05:45:00,,0834.7,5.00,0.00,24.1,23.0,00.0,33.3,25.6,07.5,0000.0,0009.96,0002.94,0001.34
2022-04-08 05:46:00,,0834.8,5.01,0.00,24.0,23.0,00.0,33.3,25.6,07.6,0000.0,0010.93,0002.85,0001.34
2022-04-08 05:47:00,,0834.7,5.00,0.00,24.0,23.0,00.0,33.2,25.6,07.6,0000.0,0011.20,0002.89,0001.35
2022-04-08 05:48:00,,0834.8,5.00,0.00,24.0,23.0,00.0,33.2,25.6,07.7,0000.0,0011.19,0002.88,0001.34
2022-04-08 05:49:00,,0834.7,4.99,0.00,24.0,22.9,00.0,33.2,25.5,07.7,0000.0,0011.44,0002.90,0001.33
2022-04-08 05:50:00,,0834.7,5.00,0.00,23.9,22.9,00.0,33.2,25.5,07.7,0000.0,0012.31,0002.91,0001.33
2022-04-08 05:51:00,,0834.7,5.00,0.00,23.9,22.9,00.0,33.1,25.5,07.7,0000.0,0012.04,0002.87,0001.32
2022-04-08 05:52:00,,0834.7,5.00,0.00,23.9,22.9,00.0,33.1,25.5,07.7,0000.0,0011.67,0002.91,0001.34
2022-04-08 05:53:00,,0834.7,5.00,0.00,23.9,22.9,00.0,33.1,25.5,07.7,0000.0,0011.37,0002.91,0001.35
2022-04-08 05:54:00,,0834.7,5.00,0.00,23.9,22.8,00.0,33.1,25.5,07.6,0000.0,0010.53,0002.90,0001.36
2022-04-08 05:55:00,,0834.7,5.00,0.00,23.8,22.8,00.0,33.0,25.5,07.6,0000.0,0009.54,0002.88,0001.37
2022-04-08 05:56:00,,0834.7,4.99,0.00,23.8,22.8,00.0,33.0,25.4,07.5,0000.0,0009.36,0002.87,0001.37
2022-04-08 05:57:00,,0834.7,5.00,0.00,23.8,22.7,00.0,33.0,25.4,07.5,0000.0,0008.47,0002.94,0001.38
2022-04-08 05:58:00,,0834.7,5.00,0.00,23.8,22.7,00.0,33.0,25.4,07.5,0000.0,0008.19,0002.90,0001.37
2022-04-08 05:59:00,,0834.7,5.01,0.00,23.7,22.7,00.0,32.9,25.4,07.5,0000.0,0008.05,0002.89,0001.38
